Regional Weather Roundup
Issued by NWS

Home | Current Version | Previous Version | Graphics & Text | Print | Product List | Glossary On
Versions: 1 2 3 4 5 6 7 8 9 10 11 12 13 14 15 16 17 18 19 20 21 22 23 24 25 26 27 28
000
ASUS45 KSLC 200810
RWRUT

UTAH REGIONAL WEATHER ROUNDUP
NATIONAL WEATHER SERVICE SALT LAKE CITY UT
200 AM MDT FRI OCT 20 2017

UTZ001>011-023>025-200900-

NORTHERN UTAH

CITY           SKY/WX    TMP DP  RH WIND       PRES   REMARKS
BRIGHAM CITY   CLEAR     46  29  50 NW6       29.69F
HILL AFB       CLEAR     61  36  39 S13       29.70F
LOGAN          CLEAR     39  29  67 CALM      29.69F
OGDEN          CLEAR     62  37  39 S14       29.68F
SALT LAKE CITY MOCLDY    65  40  39 S12       29.70F
TOOELE VALLEY  CLEAR     66  36  32 S20G26    29.69F
WENDOVER       CLEAR     43  22  43 CALM      29.68F
WEST JORDAN    CLEAR     55  40  56 S7        29.74F

$$

UTZ011>015-024>027-200900-

CENTRAL/NORTHEAST UTAH

CITY           SKY/WX    TMP DP  RH WIND       PRES   REMARKS
PROVO AIRPORT  MOCLDY    60  41  49 S9        29.77S
MOAB/CANYONLAN CLOUDY    62  35  36 E3        29.83F
DELTA          CLEAR     48  34  57 S10       29.79S
PRICE          PTCLDY    53  22  29 E7        29.87F
RICHFIELD      CLEAR     48  36  61 CALM      29.85F
ROOSEVELT      MOCLDY    46  32  57 CALM      29.87F
VERNAL         PTCLDY    43  28  55 CALM      29.86S

$$

UTZ013>016-019>022-027-200900-

SOUTHERN UTAH

CITY           SKY/WX    TMP DP  RH WIND       PRES   REMARKS
BRYCE CANYON   CLEAR     28  24  85 SW5       30.01F WCI  23
CEDAR CITY     CLEAR     51  29  42 S12       29.86F
MILFORD        CLEAR     47  30  51 SW12      29.82F
ST GEORGE      SUNNY     60  30  32 CALM      29.78S
HANKSVILLE     CLEAR     54  34  47 CALM      29.85F
KANAB          CLEAR     45  28  53 E3        29.95S
BLANDING         N/A     52  33  48 NE7       30.04F

$$

REGIONAL REPORTS     COLORADO/ARIZONA

CITY           SKY/WX    TMP DP  RH WIND       PRES   REMARKS
CRAIG, CO      MOCLDY    39  31  72 CALM      29.92F
GRAND JUNCTION MOCLDY    62  33  33 E10       29.87F
RIFLE, CO      PTCLDY    49  32  52 CALM      29.93S
MONTROSE, CO   CLOUDY    54  30  40 SE9       29.97F
CORTEZ, CO     MOCLDY    44  33  65 CALM      30.01F
COLORADO CITY    N/A     41  30  65 CALM      29.92F
PAGE, AZ       CLEAR     65  37  35 SW6       29.86S
GRAND CANYON   CLEAR     35  25  66 CALM      30.04F
KINGMAN, AZ    CLEAR     61  31  32 S10       29.85F
FLAGSTAFF, AZ  CLEAR     38  28  67 CALM      30.07F

$$

REGIONAL REPORTS    NEVADA/IDAHO/WYOMING

CITY           SKY/WX    TMP DP  RH WIND       PRES   REMARKS
LAS VEGAS, NV  CLEAR     71  34  25 VRB6      29.71F
ELY, NY        CLEAR     48  24  39 S15       29.82R
ELKO, NV       PTCLDY    38  19  46 NE5       29.66F WCI  34
POCATELLO, ID  CLEAR     64  30  27 S23G33    29.61F
BURLEY, ID     PTCLDY    57  18  21 S16       29.58F
FORT BRIDGER,    N/A     46  31  56 SW8       29.88F
EVANSTON, WY   CLEAR     47  35  63 SW8       29.85F
ROCK SPRINGS,  CLEAR     49  26  41 SE9       29.87F
KEMMERER, WY   CLEAR     45  28  53 CALM      29.87F

$$




USA.gov is the U.S. government's official web portal to all federal, state and local government web resources and services.